Location: Newark
(44.9861°N, 0.2536°E)
Time: 19:40:11
(UTC+00:00)

HuskySat-1 - Pass Details

Date: 15 July 2020
Orbit: 457 x 471 km, 51.6° (Epoch: 11 August)

Event Time Altitude Azimuth Distance (km) Brightness Sun altitude
Rises 02:20:35 0° 294° (WNW) 2,492 ? -16.7°
Reaches altitude 10° 02:22:55 10° 305° (NW) 1,613 ? -16.5°
Maximum altitude 02:26:10 30° 9° (N) 860 ? -16.2°
Drops below altitude 10° 02:29:23 10° 72° (ENE) 1,604 ? -15.9°
Sets 02:31:42 0° 83° (E) 2,476 ? -15.6°
